Torna al catalogo

STARLINK-38074

AttivoComunicazioniSSO
NORAD 69741·PAYLOAD·🇺🇸 United States

Lanciato Jul 2, 2026 da Vandenberg Space Force Base

Loading…

Prossimi Passaggi (prossime 24 ore)

TLE

AggiornatoSource: CelesTrak SupGP

Epoca: Sep 14, 2026, 22:38 UTC

1 69741C 26150C   26257.94354167  .00091024  00000+0  28254-2 0  2577
2 69741  97.2848  96.9991 0001660  94.7787  51.7253 15.33395049    11

Traccia STARLINK-38074 in tempo reale con AllMySat

Download on the App Store